DLH1242 EDDF-EDDM

Flight info

Callsign DLH1242
Flight time N/A
Altitude 23000
Route CINDY8S/18 CINDY Z74 HAREM T104 ROKIL ROKIL1A
Aircraft A320/M-SDE3FGHIRWY/LB1

Departure

Time 2026-04-15 12:36
Airport Frankfurt Main Airport (EDDF)

Arrival

Time N/A
Airport Munich Airport (EDDM)
Time Latitude Longitude Altitude Speed Heading
2026-04-15 12:13 50.04734 8.56742 364 ft 0 kts 115°
2026-04-15 12:24 50.04737 8.56730 362 ft 2 kts 114°
2026-04-15 12:24 50.04743 8.56713 362 ft 2 kts 114°
2026-04-15 12:25 50.04749 8.56690 363 ft 2 kts 123°
2026-04-15 12:25 50.04761 8.56674 364 ft 2 kts 175°
2026-04-15 12:25 50.04774 8.56674 361 ft 2 kts 200°
2026-04-15 12:25 50.04780 8.56677 361 ft 0 kts 204°
2026-04-15 12:28 50.04776 8.56674 361 ft 4 kts 204°
2026-04-15 12:28 50.04756 8.56653 361 ft 4 kts 222°
2026-04-15 12:29 50.04711 8.56567 362 ft 15 kts 232°
2026-04-15 12:29 50.04671 8.56441 365 ft 16 kts 251°
2026-04-15 12:29 50.04636 8.56287 362 ft 17 kts 242°
2026-04-15 12:29 50.04591 8.56118 361 ft 18 kts 251°
2026-04-15 12:30 50.04527 8.55962 366 ft 18 kts 194°
2026-04-15 12:30 50.04417 8.55909 361 ft 19 kts 190°
2026-04-15 12:30 50.04294 8.55961 363 ft 20 kts 158°
2026-04-15 12:30 50.04232 8.55899 360 ft 11 kts 242°
2026-04-15 12:31 50.04202 8.55787 362 ft 12 kts 249°
2026-04-15 12:31 50.04165 8.55637 364 ft 18 kts 249°
2026-04-15 12:31 50.04121 8.55455 362 ft 20 kts 249°
2026-04-15 12:31 50.04075 8.55260 364 ft 22 kts 249°
2026-04-15 12:32 50.04025 8.55050 362 ft 23 kts 250°
2026-04-15 12:32 50.03970 8.54822 361 ft 24 kts 249°
2026-04-15 12:32 50.03913 8.54588 361 ft 26 kts 249°
2026-04-15 12:32 50.03864 8.54397 364 ft 15 kts 244°
2026-04-15 12:33 50.03812 8.54260 360 ft 16 kts 240°
2026-04-15 12:33 50.03782 8.54151 364 ft 17 kts 249°
2026-04-15 12:33 50.03745 8.53999 362 ft 18 kts 248°
2026-04-15 12:33 50.03701 8.53817 362 ft 20 kts 249°
2026-04-15 12:34 50.03649 8.53595 364 ft 27 kts 248°
2026-04-15 12:34 50.03593 8.53375 361 ft 28 kts 249°
2026-04-15 12:34 50.03540 8.53155 361 ft 28 kts 249°
2026-04-15 12:34 50.03479 8.52902 361 ft 23 kts 249°
2026-04-15 12:35 50.03432 8.52724 365 ft 18 kts 248°
2026-04-15 12:35 50.03394 8.52618 363 ft 8 kts 224°
2026-04-15 12:35 50.03351 8.52596 362 ft 8 kts 180°
2026-04-15 12:35 50.03178 8.52593 361 ft 65 kts 179°
2026-04-15 12:36 50.02561 8.52597 364 ft 135 kts 180°
2026-04-15 12:36 50.01583 8.52605 397 ft 185 kts 178°
2026-04-15 12:36 50.00561 8.52457 901 ft 189 kts 192°
2026-04-15 12:36 49.99287 8.52238 1722 ft 202 kts 182°
2026-04-15 12:37 49.98228 8.52265 2208 ft 216 kts 173°
2026-04-15 12:37 49.97043 8.52918 2794 ft 228 kts 147°
2026-04-15 12:37 49.96284 8.54873 3142 ft 248 kts 95°
2026-04-15 12:37 49.96308 8.57253 3615 ft 262 kts 89°
2026-04-15 12:38 49.95999 8.59810 4329 ft 269 kts 115°
2026-04-15 12:38 49.94992 8.62122 4736 ft 270 kts 130°
2026-04-15 12:38 49.93813 8.64276 4983 ft 271 kts 130°
2026-04-15 12:38 49.92586 8.66515 5675 ft 274 kts 130°
2026-04-15 12:39 49.91356 8.68758 6604 ft 276 kts 130°
2026-04-15 12:39 49.90201 8.70867 7405 ft 279 kts 130°
2026-04-15 12:39 49.89068 8.73288 8233 ft 283 kts 122°
2026-04-15 12:39 49.88083 8.75887 9044 ft 286 kts 119°
2026-04-15 12:40 49.87135 8.78625 9850 ft 290 kts 118°
2026-04-15 12:40 49.86306 8.81061 10292 ft 304 kts 118°
2026-04-15 12:40 49.85294 8.84013 10546 ft 327 kts 118°
2026-04-15 12:40 49.84218 8.87093 10989 ft 340 kts 118°
2026-04-15 12:41 49.83186 8.89999 11605 ft 345 kts 119°
2026-04-15 12:41 49.82010 8.93268 12325 ft 349 kts 119°
2026-04-15 12:41 49.80837 8.96500 13011 ft 353 kts 120°
2026-04-15 12:41 49.79624 8.99825 13710 ft 356 kts 120°
2026-04-15 12:42 49.78461 9.03002 14351 ft 360 kts 120°
2026-04-15 12:42 49.77237 9.06346 15002 ft 363 kts 119°
2026-04-15 12:42 49.76176 9.09824 15610 ft 367 kts 110°
2026-04-15 12:42 49.75491 9.13607 16219 ft 371 kts 104°
2026-04-15 12:43 49.74712 9.17264 16799 ft 374 kts 114°
2026-04-15 12:43 49.73442 9.20780 17401 ft 377 kts 125°
2026-04-15 12:43 49.71775 9.23920 17987 ft 379 kts 131°
2026-04-15 12:43 49.70022 9.26994 18575 ft 383 kts 131°
2026-04-15 12:44 49.68261 9.30095 19121 ft 386 kts 131°
2026-04-15 12:44 49.66477 9.33238 19664 ft 390 kts 131°
2026-04-15 12:44 49.64684 9.36399 20220 ft 393 kts 131°
2026-04-15 12:44 49.62877 9.39584 20753 ft 396 kts 131°
2026-04-15 12:45 49.61052 9.42797 21276 ft 400 kts 131°
2026-04-15 12:45 49.59215 9.46036 21795 ft 403 kts 131°
2026-04-15 12:45 49.57364 9.49298 22296 ft 406 kts 131°
2026-04-15 12:45 49.55498 9.52579 22771 ft 409 kts 131°
2026-04-15 12:46 49.53668 9.55794 22964 ft 410 kts 131°
2026-04-15 12:46 49.51819 9.59032 23005 ft 409 kts 131°
2026-04-15 12:46 49.50631 9.61109 23011 ft 408 kts 131°
2026-04-15 12:46 49.48127 9.65481 23010 ft 408 kts 131°
2026-04-15 12:47 49.46253 9.68747 23010 ft 408 kts 131°
2026-04-15 12:47 49.44372 9.72021 23008 ft 408 kts 131°
2026-04-15 12:47 49.42496 9.75286 23008 ft 408 kts 131°
2026-04-15 12:47 49.40642 9.78504 23009 ft 408 kts 131°
2026-04-15 12:48 49.38760 9.81772 23008 ft 408 kts 131°
2026-04-15 12:48 49.36873 9.85044 23010 ft 408 kts 131°
2026-04-15 12:48 49.35139 9.88045 23010 ft 408 kts 131°
2026-04-15 12:48 49.33291 9.91237 23008 ft 408 kts 131°
2026-04-15 12:49 49.31475 9.94363 23007 ft 408 kts 132°
2026-04-15 12:49 49.29725 9.97373 23005 ft 408 kts 132°
2026-04-15 12:49 49.28519 9.99449 23005 ft 408 kts 132°
2026-04-15 12:49 49.26674 10.02623 23005 ft 408 kts 132°
2026-04-15 12:50 49.24830 10.05791 23005 ft 408 kts 132°
2026-04-15 12:50 49.22916 10.09070 23005 ft 408 kts 132°
2026-04-15 12:50 49.21023 10.12305 23004 ft 408 kts 132°
2026-04-15 12:50 49.19134 10.15532 23004 ft 408 kts 132°
2026-04-15 12:51 49.17259 10.18735 22918 ft 397 kts 132°
2026-04-15 12:51 49.15434 10.21851 22565 ft 390 kts 132°
2026-04-15 12:51 49.13630 10.24923 22118 ft 387 kts 132°
2026-04-15 12:51 49.11847 10.27869 21678 ft 384 kts 133°
2026-04-15 12:52 49.10166 10.30578 21256 ft 381 kts 134°
2026-04-15 12:52 49.08409 10.33372 20804 ft 378 kts 134°
2026-04-15 12:52 49.06595 10.36242 20349 ft 376 kts 134°
2026-04-15 12:52 49.04817 10.39057 19895 ft 373 kts 134°
2026-04-15 12:53 49.03027 10.41907 19436 ft 371 kts 134°
2026-04-15 12:53 49.01249 10.44750 18982 ft 368 kts 134°
2026-04-15 12:53 48.99494 10.47564 18526 ft 366 kts 134°
2026-04-15 12:53 48.97747 10.50358 18077 ft 363 kts 134°
2026-04-15 12:54 48.96009 10.53131 17637 ft 361 kts 134°
2026-04-15 12:54 48.94284 10.55883 17203 ft 358 kts 134°
2026-04-15 12:54 48.92568 10.58614 16772 ft 356 kts 134°
2026-04-15 12:54 48.90859 10.61330 16342 ft 354 kts 134°
2026-04-15 12:55 48.89165 10.64021 15919 ft 351 kts 134°
2026-04-15 12:55 48.87479 10.66697 15499 ft 349 kts 134°
2026-04-15 12:55 48.85801 10.69353 15082 ft 347 kts 134°
2026-04-15 12:55 48.84135 10.71988 14664 ft 345 kts 134°
2026-04-15 12:56 48.82479 10.74606 14241 ft 343 kts 134°
2026-04-15 12:56 48.80833 10.77201 13808 ft 341 kts 134°
2026-04-15 12:56 48.79287 10.79630 13426 ft 339 kts 135°
2026-04-15 12:56 48.77612 10.82157 12997 ft 337 kts 135°
2026-04-15 12:57 48.75988 10.84605 12576 ft 335 kts 135°
2026-04-15 12:57 48.74330 10.87105 12145 ft 332 kts 135°
2026-04-15 12:57 48.72698 10.89565 11712 ft 330 kts 135°
2026-04-15 12:57 48.71076 10.92008 11288 ft 328 kts 135°
2026-04-15 12:58 48.69483 10.94407 10866 ft 326 kts 135°
2026-04-15 12:58 48.67881 10.96817 10430 ft 324 kts 135°
2026-04-15 12:58 48.66295 10.99203 10132 ft 317 kts 135°
2026-04-15 12:58 48.64756 11.01518 10006 ft 305 kts 135°